Regional Weather Roundup
Issued by NWS Cleveland, OH

Home | Current Version | Previous Version | Graphics & Text | Print | Product List | Glossary On
Versions: 1 2 3 4 5 6 7 8 9 10 11 12 13 14 15 16 17 18 19 20 21 22 23 24 25 26 27 28 29 30 31 32 33 34 35 36 37 38 39 40 41 42 43 44 45 46 47 48 49 50
672
ASUS41 KCLE 090802
RWRCLE
OHIO REGIONAL WEATHER ROUNDUP
NATIONAL WEATHER SERVICE CLEVELAND, OH
300 AM EST FRI DEC 09 2016

NOTE: "FAIR" INDICATES FEW OR NO CLOUDS BELOW 12,000 FEET WITH NO
SIGNIFICANT WEATHER AND/OR OBSTRUCTIONS TO VISIBILITY.

OHZ001>008-015>018-024>027-034-035-043-044-090900-
   NORTHWEST OHIO

CITY           SKY/WX    TMP DP  RH WIND       PRES   REMARKS
DEFIANCE       CLOUDY    22  15  75 W7        30.36R WCI  13
FINDLAY        CLOUDY    21  15  78 W17G25    30.35R WCI   7
TOLEDO EXPRESS LGT SNOW  22  19  89 W15       30.32R FOG     WCI   9
TOLEDO EXEC    CLOUDY    23  18  81 W15       30.34R WCI  10
LIMA           CLOUDY    20  17  88 W17       30.37R WCI   5
$$

OHZ009>014-019>023-028>033-038-089-090900-
   NORTHEAST OHIO

CITY           SKY/WX    TMP DP  RH WIND       PRES   REMARKS
CLE-HOPKINS    FLURRIES  25  16  68 W18G25    30.32R WCI  11
CLE-LAKEFRONT  CLOUDY    25  19  78 SW25G35   30.28R WCI   9
CUY CO. ARPT   NOT AVBL
LORAIN-ELYRIA  CLOUDY    23  16  74 W15G22    30.31R WCI  10
ASHTABULA      CLOUDY    23  20  88 SW15      30.21R WCI  10
AKRON-CANTON   LGT SNOW  22  16  78 W7        30.29R WCI  13
WOOSTER        LGT SNOW  21  16  81 W12       30.30R WCI   9
MANSFIELD      LGT SNOW  20  16  84 SW13G20   30.30R FOG     WCI   7
YOUNGSTOWN     FLURRIES  23  17  78 W16G24    30.22R WCI  10
$$

OHZ042-051>053-060>062-070>072-077>081-090900-
  SOUTHWEST OHIO

CITY           SKY/WX    TMP DP  RH WIND       PRES   REMARKS
CINC-COVINGTON CLOUDY    22  14  71 NW13      30.47R WCI  10
CINC-LUNKEN    CLOUDY    24  13  62 VRB5      30.51R WCI  18
HAMILTON       CLOUDY    22  15  75 W9        30.48R WCI  12
DAYTON         PTCLDY    19  13  77 W15       30.41R WCI   5
WRIGHT-PAT AFB CLOUDY    21  13  73 W9        30.42R WCI  10
DAYTON GENERAL CLOUDY    20  13  74 W9        30.42R WCI   9
WILMINGTON     CLEAR     18  12  77 W15       30.41R WCI   4
$$

OHZ036-037-039>041-045>050-054>059-063>069-073>076-082>088-090900-
  CENTRAL AND SOUTHEAST OHIO

CITY           SKY/WX    TMP DP  RH WIND       PRES   REMARKS
COLUMBUS       LGT SNOW  21  17  84 W9        30.40R FOG     WCI  11
OSU AIRPORT    CLOUDY    21  15  78 W12       30.39R WCI   9
BOLTON FIELD   NOT AVBL
RICKENBACK AFB FLURRIES  21  14  74 W10       30.41R WCI  10
NEWARK         FLURRIES  21  15  78 W6        30.38R WCI  13
MARION         CLOUDY    21  15  78 W13       30.36R WCI   9
LANCASTER      LGT SNOW  21  15  78 W9        30.41R WCI  11
ZANESVILLE     FLURRIES  22  15  75 W12       30.37R WCI  10
NEW PHILLY     FLURRIES  22  17  81 W5        30.34  WCI  16
$$




USA.gov is the U.S. government's official web portal to all federal, state and local government web resources and services.